DW8295 Weather Reports


Display with metric or nautical units.
time (UTC)temp
F
wind
direction
speed
MPH
gust
MPH
rain 1hr
in
rain 24hr
in
rain mn
in
humidity
%
barometer
mb
20260831123004 64 333 2.0 8.0 0.00 0.00 0.00 73 1019.2
20260831122729 63 329 1.0 8.0 0.00 0.00 0.00 74 1019.2
20260831122002 63 323 1.0 6.0 0.00 0.00 0.00 76 1019.2
20260831121500 62 322 1.0 6.0 0.00 0.00 0.00 78 1019.1
20260831120957 62 355 1.0 5.0 0.00 0.00 0.00 79 1018.9
20260831120455 61 351 1.0 5.0 0.00 0.00 0.00 80 1019.0
20260831115954 61 351 1.0 4.0 0.00 0.00 0.00 83 1019.3
20260831115454 60 300 0.0 4.0 0.00 0.00 0.00 85 1019.3
20260831114954 59 355 0.0 5.0 0.00 0.00 0.00 88 1019.4
20260831114454 58 0 1.0 5.0 0.00 0.00 0.00 90 1019.4
20260831113953 57 25 1.0 4.0 0.00 0.00 0.00 92 1019.4
20260831113447 56 347 0.0 4.0 0.00 0.00 0.00 93 1019.3
20260831112941 56 346 0.0 1.0 0.00 0.00 0.00 93 1019.3
20260831112918 56 346 0.0 0.0 0.00 0.00 0.00 93 1019.2
20260831111930 56 346 0.0 1.0 0.00 0.00 0.00 93 1019.2
20260831111422 55 346 0.0 1.0 0.00 0.00 0.00 92 1019.1
20260831110915 55 346 0.0 1.0 0.00 0.00 0.00 92 1019.1
20260831110409 55 346 0.0 1.0 0.00 0.00 0.00 92 1019.0
20260831105903 55 346 0.0 0.0 0.00 0.00 0.00 92 1019.0
20260831105358 54 346 0.0 0.0 0.00 0.00 0.00 92 1018.9
20260831104851 54 346 0.0 0.0 0.00 0.00 0.00 91 1018.9
20260831104345 55 346 0.0 0.0 0.00 0.00 0.00 91 1018.7
20260831104316 55 346 0.0 0.0 0.00 0.00 0.00 91 1018.7
20260831103557 55 346 0.0 1.0 0.00 0.00 0.00 91 1018.6
20260831102828 55 346 0.0 1.0 0.00 0.00 0.00 90 1018.6
20260831102321 55 346 0.0 1.0 0.00 0.00 0.00 90 1018.6
20260831101815 55 346 0.0 1.0 0.00 0.00 0.00 90 1018.5
20260831101311 55 346 0.0 1.0 0.00 0.00 0.00 90 1018.5
20260831100803 55 346 0.0 1.0 0.00 0.00 0.00 90 1018.5
20260831100749 55 346 0.0 0.0 0.00 0.00 0.00 90 1018.5
20260831095751 55 346 0.0 2.0 0.00 0.00 0.00 90 1018.4
20260831095245 55 346 0.0 2.0 0.00 0.00 0.00 89 1018.3
20260831094740 56 343 0.0 1.0 0.00 0.00 0.00 89 1018.3
20260831094234 56 343 0.0 2.0 0.00 0.00 0.00 89 1018.2
20260831093728 56 343 0.0 2.0 0.00 0.00 0.00 88 1018.2
20260831093222 56 342 0.0 0.0 0.00 0.00 0.00 88 1018.2
20260831092936 56 342 0.0 1.0 0.00 0.00 0.00 88 1018.2
20260831092210 56 342 0.0 1.0 0.00 0.00 0.00 87 1018.2
20260831091703 57 342 0.0 0.0 0.00 0.00 0.00 87 1018.1
20260831091157 57 342 0.0 0.0 0.00 0.00 0.00 86 1017.9
20260831090911 58 342 0.0 0.0 0.00 0.00 0.00 86 1017.9
20260831090145 58 342 0.0 0.0 0.00 0.00 0.00 85 1017.8
20260831085641 58 342 0.0 0.0 0.00 0.00 0.00 84 1017.7
20260831085135 59 342 0.0 0.0 0.00 0.00 0.00 84 1017.6
20260831084627 59 342 0.0 3.0 0.00 0.00 0.00 83 1017.6
20260831084344 59 343 0.0 3.0 0.00 0.00 0.00 83 1017.5
20260831083616 60 346 0.0 5.0 0.00 0.00 0.00 83 1017.4
20260831083110 60 346 1.0 5.0 0.00 0.00 0.00 83 1017.4
20260831082603 60 346 1.0 5.0 0.00 0.00 0.00 83 1017.4
20260831082318 60 5 2.0 8.0 0.00 0.00 0.00 84 1017.4
20260831081811 59 14 1.0 8.0 0.00 0.00 0.00 85 1017.3
20260831081045 59 351 1.0 3.0 0.00 0.00 0.00 85 1017.2
20260831080540 59 346 0.0 2.0 0.00 0.00 0.00 85 1017.2
20260831080033 59 346 0.0 2.0 0.00 0.00 0.00 85 1017.1
20260831075529 59 346 0.0 3.0 0.00 0.00 0.00 85 1017.0
20260831075247 59 346 0.0 3.0 0.00 0.00 0.00 85 1017.0
20260831074515 59 344 0.0 2.0 0.00 0.00 0.00 85 1017.0
20260831074454 60 344 0.0 3.0 0.00 0.00 0.00 85 1016.9
20260831073503 60 343 1.0 4.0 0.00 0.00 0.00 85 1016.9
20260831072957 60 335 1.0 3.0 0.00 0.00 0.00 85 1016.9
20260831072452 60 24 1.0 3.0 0.00 0.00 0.00 86 1016.9
20260831071946 60 30 1.0 3.0 0.00 0.00 0.00 86 1016.9
20260831071439 60 5 1.0 3.0 0.00 0.00 0.00 86 1016.8
20260831070934 60 5 1.0 4.0 0.00 0.00 0.00 86 1016.8
20260831070427 60 9 1.0 4.0 0.00 0.00 0.00 86 1016.8
20260831065922 60 5 1.0 6.0 0.00 0.00 0.00 87 1016.8
20260831065415 60 10 2.0 6.0 0.00 0.00 0.00 87 1016.8
20260831065128 60 355 2.0 6.0 0.00 0.00 0.00 88 1016.7
20260831064403 60 9 1.0 4.0 0.00 0.00 0.00 89 1016.8
20260831063857 60 13 1.0 5.0 0.00 0.00 0.00 89 1016.9
20260831063352 60 0 1.0 5.0 0.00 0.00 0.00 90 1016.7
20260831062845 59 350 1.0 4.0 0.00 0.00 0.00 91 1016.6
20260831062340 59 10 0.0 3.0 0.00 0.00 0.00 92 1016.6
20260831061834 58 355 0.0 2.0 0.00 0.00 0.00 92 1016.6
20260831061745 58 355 0.0 3.0 0.00 0.00 0.00 92 1016.5
20260831061404 58 355 1.0 3.0 0.00 0.00 0.00 92 1016.6
20260831060316 58 351 0.0 0.0 0.00 0.00 0.00 91 1016.4
20260831055810 58 351 0.0 0.0 0.00 0.00 0.00 91 1016.4
20260831055306 58 351 0.0 1.0 0.00 0.00 0.00 91 1016.4
20260831054757 58 351 0.0 2.0 0.00 0.00 0.00 90 1016.4
20260831054253 58 355 0.0 2.0 0.00 0.00 0.00 90 1016.3
20260831053745 59 350 0.0 0.0 0.00 0.00 0.00 90 1016.2
20260831053239 59 350 0.0 0.0 0.00 0.00 0.00 90 1016.2
20260831052733 59 350 0.0 0.0 0.00 0.00 0.00 89 1016.2
20260831052228 59 350 0.0 0.0 0.00 0.00 0.00 89 1016.1
20260831051722 60 350 0.0 0.0 0.00 0.00 0.00 88 1016.0
20260831051439 60 350 0.0 0.0 0.00 0.00 0.00 88 1016.0
20260831050709 60 350 0.0 0.0 0.00 0.00 0.00 88 1015.9
20260831050203 60 350 0.0 0.0 0.00 0.00 0.00 87 1016.0
20260831045658 60 350 0.0 0.0 0.00 0.00 0.00 87 1016.0
20260831045415 61 350 0.0 0.0 0.00 0.00 0.00 87 1016.0
20260831044646 61 350 0.0 0.0 0.00 0.00 0.00 86 1016.0
20260831044139 62 350 0.0 0.0 0.00 0.00 0.00 86 1015.9
20260831043635 62 350 0.0 0.0 0.00 0.00 0.00 85 1015.9
20260831043128 62 350 0.0 0.0 0.00 0.00 0.00 84 1016.0
20260831042622 63 350 0.0 0.0 0.00 0.00 0.00 84 1016.1
20260831042116 63 350 0.0 0.0 0.00 0.00 0.00 83 1016.0
20260831041641 63 350 0.0 0.0 0.00 0.00 0.00 82 1015.9
20260831041103 64 350 0.0 0.0 0.00 0.00 0.00 82 1015.9
20260831040603 64 350 0.0 0.0 0.00 0.00 0.00 81 1015.9
20260831040104 64 350 0.0 0.0 0.00 0.00 0.00 81 1016.0
20260831035838 65 350 0.0 0.0 0.00 0.00 0.00 81 1015.9
20260831035103 65 350 0.0 3.0 0.00 0.00 0.00 80 1015.9
20260831034603 65 350 0.0 3.0 0.00 0.00 0.00 80 1015.8
20260831034105 65 350 0.0 1.0 0.00 0.00 0.00 79 1015.8
20260831033603 65 350 0.0 1.0 0.00 0.00 0.00 79 1015.7
20260831033103 66 350 0.0 1.0 0.00 0.00 0.00 78 1015.5
20260831032603 66 350 1.0 4.0 0.00 0.00 0.00 77 1015.5
20260831032103 66 350 1.0 4.0 0.00 0.00 0.00 77 1015.6
20260831031830 66 345 1.0 7.0 0.00 0.00 0.00 76 1015.7
20260831031059 67 296 1.0 9.0 0.00 0.00 0.00 77 1015.7
20260831030600 67 355 2.0 10.0 0.00 0.00 0.00 76 1015.7
20260831030059 67 340 3.0 10.0 0.00 0.00 0.00 75 1015.9
20260831025559 67 355 4.0 13.0 0.00 0.00 0.00 74 1016.1
20260831025100 68 13 5.0 14.0 0.00 0.00 0.00 73 1016.2
20260831024600 68 5 5.0 14.0 0.00 0.00 0.00 71 1016.1
20260831024059 68 5 4.0 12.0 0.00 0.00 0.00 70 1016.0
20260831023559 69 355 3.0 12.0 0.00 0.00 0.00 69 1016.0
20260831023059 69 335 3.0 15.0 0.00 0.00 0.00 69 1015.9
20260831022556 70 309 4.0 15.0 0.00 0.00 0.00 68 1015.9
20260831022055 71 341 4.0 15.0 0.00 0.00 0.00 68 1015.8
20260831021555 71 350 4.0 15.0 0.00 0.00 0.00 70 1015.6
20260831021055 70 31 3.0 13.0 0.00 0.00 0.00 73 1015.2
20260831021032 70 307 1.0 3.0 0.00 0.00 0.00 76 1015.1
20260831020055 70 193 0.0 2.0 0.00 0.00 0.00 76 1014.8
20260831015555 70 193 0.0 1.0 0.00 0.00 0.00 77 1014.7
20260831015055 70 193 0.0 1.0 0.00 0.00 0.00 79 1014.7
20260831014555 69 193 0.0 1.0 0.00 0.00 0.00 78 1014.6
20260831014051 69 193 0.0 0.0 0.00 0.00 0.00 79 1014.5
20260831013551 69 193 0.0 0.0 0.00 0.00 0.00 82 1014.6
20260831013051 69 193 0.0 0.0 0.00 0.00 0.00 82 1014.5
20260831012551 69 193 0.0 0.0 0.00 0.00 0.00 82 1014.4
20260831012052 69 193 0.0 0.0 0.00 0.00 0.00 82 1014.3
20260831011553 69 193 0.0 0.0 0.00 0.00 0.00 82 1014.3
20260831011049 69 193 0.0 0.0 0.00 0.00 0.00 82 1014.3
20260831010547 69 193 0.0 0.0 0.00 0.00 0.00 82 1014.2
20260831010308 69 193 0.0 0.0 0.00 0.00 0.00 81 1014.2
20260831005543 69 193 0.0 0.0 0.00 0.00 0.00 81 1014.2
20260831005245 70 193 0.0 0.0 0.00 0.00 0.00 80 1014.2
20260831005131 69 193 0.0 0.0 0.00 0.00 0.00 81 1014.2
20260831004304 70 193 0.0 0.0 0.00 0.00 0.00 80 1014.1
20260831003540 70 193 0.0 0.0 0.00 0.00 0.00 80 1014.1
20260831003035 71 193 0.0 0.0 0.00 0.00 0.00 79 1014.1
20260831002528 71 193 0.0 0.0 0.00 0.00 0.00 77 1014.1
20260831002023 71 193 0.0 0.0 0.00 0.00 0.00 77 1014.1
20260831001517 71 193 0.0 0.0 0.00 0.00 0.00 77 1014.0
20260831001010 71 193 0.0 0.0 0.00 0.00 0.00 77 1014.0
20260831000506 71 193 0.0 0.0 0.00 0.00 0.00 77 1013.8
20260830235959 72 193 0.0 0.0 0.00 0.00 0.00 77 1013.7
20260830235453 72 193 0.0 0.0 0.00 0.00 0.00 75 1013.7
20260830234947 73 193 0.0 0.0 0.00 0.00 0.00 74 1013.8
20260830234440 73 193 0.0 0.0 0.00 0.00 0.00 73 1013.8
20260830233934 73 193 0.0 0.0 0.00 0.00 0.00 71 1013.7
20260830233428 73 193 0.0 0.0 0.00 0.00 0.00 68 1013.6
20260830232922 74 193 0.0 1.0 0.00 0.00 0.00 69 1013.6
20260830232416 74 193 0.0 1.0 0.00 0.00 0.00 67 1013.6
20260830231910 74 193 0.0 1.0 0.00 0.00 0.00 67 1013.6
20260830231404 74 193 0.0 1.0 0.00 0.00 0.00 66 1013.6
20260830230858 74 193 0.0 1.0 0.00 0.00 0.00 66 1013.7
20260830230352 74 193 0.0 3.0 0.00 0.00 0.00 66 1013.6
20260830230109 74 193 0.0 3.0 0.00 0.00 0.00 65 1013.7
20260830225340 74 192 0.0 2.0 0.00 0.00 0.00 65 1013.7
20260830224835 74 188 0.0 2.0 0.00 0.00 0.00 66 1013.7
20260830224328 74 153 0.0 5.0 0.00 0.00 0.00 66 1013.9
20260830224042 74 153 0.0 5.0 0.00 0.00 0.00 66 1013.7
20260830223316 75 234 0.0 4.0 0.00 0.00 0.00 66 1013.7
20260830222810 75 236 0.0 4.0 0.00 0.00 0.00 66 1013.8
20260830222306 75 236 1.0 4.0 0.00 0.00 0.00 66 1013.8
20260830222014 75 265 0.0 6.0 0.00 0.00 0.00 66 1013.7
20260830221252 75 265 0.0 6.0 0.00 0.00 0.00 65 1013.7
20260830220747 75 217 0.0 3.0 0.00 0.00 0.00 65 1013.8
20260830220240 75 244 0.0 3.0 0.00 0.00 0.00 65 1014.0
20260830215735 75 246 1.0 5.0 0.00 0.00 0.00 64 1013.9
20260830215230 76 242 1.0 5.0 0.00 0.00 0.00 64 1014.0
20260830214952 76 259 1.0 5.0 0.00 0.00 0.00 64 1014.0
20260830214216 76 245 1.0 5.0 0.00 0.00 0.00 64 1014.1
20260830213711 76 253 1.0 5.0 0.00 0.00 0.00 64 1014.1
20260830213424 76 231 1.0 4.0 0.00 0.00 0.00 64 1014.2
20260830212658 76 217 1.0 5.0 0.00 0.00 0.00 63 1014.2
20260830212152 76 243 1.0 6.0 0.00 0.00 0.00 63 1014.2
20260830211647 76 227 1.0 7.0 0.00 0.00 0.00 63 1014.2
20260830211140 76 221 1.0 7.0 0.00 0.00 0.00 63 1014.1
20260830210636 76 196 0.0 6.0 0.00 0.00 0.00 63 1014.0
20260830210129 76 257 1.0 6.0 0.00 0.00 0.00 63 1014.1
20260830205622 76 190 1.0 7.0 0.00 0.00 0.00 62 1014.1
20260830205117 76 256 1.0 7.0 0.00 0.00 0.00 62 1014.1
20260830204610 76 244 1.0 6.0 0.00 0.00 0.00 63 1014.1
20260830204327 76 232 1.0 6.0 0.00 0.00 0.00 63 1014.1
20260830203559 76 238 1.0 6.0 0.00 0.00 0.00 63 1014.1
20260830203315 76 259 1.0 5.0 0.00 0.00 0.00 64 1014.2
20260830202546 76 251 1.0 5.0 0.00 0.00 0.00 64 1014.2
20260830202301 76 281 1.0 6.0 0.00 0.00 0.00 64 1014.2
20260830201534 76 270 1.0 7.0 0.00 0.00 0.00 64 1014.3
20260830201029 76 241 1.0 7.0 0.00 0.00 0.00 65 1014.3
20260830200523 76 250 1.0 5.0 0.00 0.00 0.00 65 1014.5
20260830200016 76 249 1.0 6.0 0.00 0.00 0.00 65 1014.4
20260830195512 76 273 1.0 6.0 0.00 0.00 0.00 66 1014.6
20260830195004 76 252 1.0 5.0 0.00 0.00 0.00 66 1014.7
20260830194458 75 306 1.0 5.0 0.00 0.00 0.00 67 1014.7
20260830194213 75 241 0.0 3.0 0.00 0.00 0.00 67 1014.7
20260830193446 75 286 1.0 5.0 0.00 0.00 0.00 68 1014.7
20260830192941 75 290 1.0 5.0 0.00 0.00 0.00 68 1014.8
20260830192434 75 284 1.0 8.0 0.00 0.00 0.00 69 1014.8
20260830192149 75 241 1.0 8.0 0.00 0.00 0.00 69 1014.9
20260830191423 75 244 1.0 7.0 0.00 0.00 0.00 69 1014.9
20260830190917 75 276 1.0 7.0 0.00 0.00 0.00 69 1015.0
20260830190410 74 284 1.0 4.0 0.00 0.00 0.00 70 1015.1
20260830185905 74 304 1.0 11.0 0.00 0.00 0.00 70 1015.1
20260830185358 74 295 2.0 11.0 0.00 0.00 0.00 70 1015.2
20260830184852 74 275 1.0 8.0 0.00 0.00 0.00 71 1015.4
20260830184347 74 237 1.0 7.0 0.00 0.00 0.00 71 1015.5
20260830183840 74 296 1.0 7.0 0.00 0.00 0.00 71 1015.5
20260830183337 74 240 1.0 7.0 0.00 0.00 0.00 70 1015.6
20260830182829 73 244 1.0 7.0 0.00 0.00 0.00 70 1015.7
20260830182322 73 289 1.0 5.0 0.00 0.00 0.00 71 1015.8
20260830182036 73 238 1.0 3.0 0.00 0.00 0.00 70 1015.8
20260830181311 74 217 1.0 7.0 0.00 0.00 0.00 70 1016.0
20260830180805 74 229 1.0 7.0 0.00 0.00 0.00 70 1015.9
20260830180258 74 272 2.0 7.0 0.00 0.00 0.00 70 1016.1
20260830175752 74 284 2.0 7.0 0.00 0.00 0.00 70 1016.2
20260830175246 74 298 1.0 8.0 0.00 0.00 0.00 69 1016.1
20260830174741 74 288 1.0 8.0 0.00 0.00 0.00 71 1016.1
20260830174235 74 297 1.0 9.0 0.00 0.00 0.00 70 1016.0
20260830173956 75 233 1.0 9.0 0.00 0.00 0.00 69 1016.1
20260830173222 75 331 1.0 4.0 0.00 0.00 0.00 71 1015.9
20260830172717 76 315 2.0 12.0 0.00 0.00 0.00 67 1015.7
20260830172212 76 229 2.0 12.0 0.00 0.00 0.00 66 1015.9
20260830171904 74 346 2.0 11.0 0.00 0.00 0.00 67 1016.1
20260830171747 75 311 3.0 11.0 0.00 0.00 0.00 65 1015.9
20260830170916 74 204 0.0 2.0 0.00 0.00 0.00 73 1016.0
20260830170642 74 169 1.0 5.0 0.00 0.00 0.00 73 1016.0
20260830165640 74 169 2.0 5.0 0.00 0.00 0.00 73 1016.0
20260830165134 74 169 2.0 6.0 0.00 0.00 0.00 71 1016.0
20260830164629 75 171 2.0 6.0 0.00 0.00 0.00 70 1016.0
20260830164124 76 196 2.0 5.0 0.00 0.00 0.00 69 1016.1
20260830163616 76 211 2.0 5.0 0.00 0.00 0.00 67 1016.0
20260830163110 78 176 2.0 5.0 0.00 0.00 0.00 65 1015.9
20260830162610 79 196 1.0 6.0 0.00 0.00 0.00 63 1016.0
20260830162108 79 209 1.0 7.0 0.00 0.00 0.00 61 1016.0
20260830161609 79 207 2.0 8.0 0.00 0.00 0.00 61 1015.9
20260830161105 79 206 2.0 8.0 0.00 0.00 0.00 62 1016.2
20260830161040 79 169 2.0 6.0 0.00 0.00 0.00 65 1016.2
20260830160051 79 188 2.0 6.0 0.00 0.00 0.00 64 1016.2
20260830155546 79 223 2.0 5.0 0.00 0.00 0.00 61 1016.3
20260830155039 79 279 2.0 9.0 0.00 0.00 0.00 60 1016.3
20260830154533 78 217 2.0 9.0 0.00 0.00 0.00 60 1016.4
20260830154256 78 223 1.0 7.0 0.00 0.00 0.00 64 1016.4
20260830153521 78 244 2.0 7.0 0.00 0.00 0.00 64 1016.4
20260830153015 77 234 2.0 7.0 0.00 0.00 0.00 64 1016.5
20260830152509 76 229 2.0 7.0 0.00 0.00 0.00 66 1016.6
20260830152227 76 186 2.0 6.0 0.00 0.00 0.00 69 1016.6
20260830151459 76 186 2.0 6.0 0.00 0.00 0.00 67 1016.6
20260830150953 75 191 1.0 5.0 0.00 0.00 0.00 66 1016.6
20260830150446 75 228 1.0 7.0 0.00 0.00 0.00 68 1016.6
20260830145940 74 278 2.0 7.0 0.00 0.00 0.00 69 1016.7
20260830145654 74 232 2.0 9.0 0.00 0.00 0.00 69 1016.8
20260830144927 73 212 3.0 9.0 0.00 0.00 0.00 70 1016.9
20260830144422 73 167 1.0 6.0 0.00 0.00 0.00 70 1017.0
20260830143915 72 211 1.0 6.0 0.00 0.00 0.00 72 1017.2
20260830143409 72 202 2.0 6.0 0.00 0.00 0.00 72 1017.1
20260830142903 72 211 3.0 6.0 0.00 0.00 0.00 71 1017.2
20260830142400 72 216 2.0 6.0 0.00 0.00 0.00 71 1017.2
20260830141858 72 178 1.0 7.0 0.00 0.00 0.00 70 1017.2
20260830141359 71 286 1.0 7.0 0.00 0.00 0.00 70 1017.2
20260830140859 71 240 2.0 7.0 0.00 0.00 0.00 71 1017.3
20260830140358 71 226 2.0 7.0 0.00 0.00 0.00 70 1017.3
20260830135858 70 227 1.0 5.0 0.00 0.00 0.00 75 1017.3
20260830135358 69 211 2.0 7.0 0.00 0.00 0.00 76 1017.3
20260830134856 69 225 2.0 7.0 0.00 0.00 0.00 77 1017.3
20260830134356 68 227 2.0 7.0 0.00 0.00 0.00 77 1017.4
20260830133857 68 223 2.0 7.0 0.00 0.00 0.00 76 1017.5
20260830133355 68 200 1.0 6.0 0.00 0.00 0.00 76 1017.5
20260830133342 68 212 2.0 6.0 0.00 0.00 0.00 77 1017.7
20260830132354 68 221 2.0 6.0 0.00 0.00 0.00 76 1017.6
20260830131854 68 225 2.0 8.0 0.00 0.00 0.00 76 1017.5
20260830131355 68 208 2.0 8.0 0.00 0.00 0.00 75 1017.5
20260830130854 68 282 1.0 5.0 0.00 0.00 0.00 76 1017.5
20260830130354 67 290 1.0 5.0 0.00 0.00 0.00 76 1017.5
20260830125854 67 274 1.0 4.0 0.00 0.00 0.00 77 1017.5
20260830125610 67 250 1.0 7.0 0.00 0.00 0.00 78 1017.7
20260830124843 66 272 1.0 7.0 0.00 0.00 0.00 78 1017.7
20260830124336 66 245 1.0 5.0 0.00 0.00 0.00 79 1017.7
20260830123830 65 227 1.0 6.0 0.00 0.00 0.00 79 1017.8